STARLINK-3456, 51759

Orbit data source: Space-Track

STARLINK-3456, 51759 is a payload satellite owned by SpaceX/Seattle (US) in LEO that was launched on Mon, 21 Feb 2022 UTC via an FALCON 9 launch vehicle from the Air Force Eastern Test Range (AFETR). Payload-class satellites include a variety of spacecraft equipped with specific instruments for various scientific and technological missions. These include communications satellites like Starlink; space stations such as the ISS; scientific satellites like the Hubble; Earth observation satellites from companies like Planet Labs, Umbra, and HawkEye 360; GPS; miniature CubeSats for education and research; and military/defense satellites.

Loading next visibility...
Identifier
51759, 2022-016AX
Orbit
LEO
Country
Flag of USUS
Related business
Manufacturer
SpaceX/Seattle
Mission
Operational Commercial Communications
Bus & Motor
STARLINK, Unknown motor
Mass
297 kg wet, ~275 kg dry
Launch date (UTC)
2022-02-21 (4 years ago)
Launch vehicle
FALCON 9
Launch site
Air Force Eastern Test Range (AFETR)
Object type
Payload
Rocket body
Debris
Shape & HBR
Box + 1 Pan, 10.1 m
Radar Cross Section
13.562 m², Large (>1 m²)

Expand to show TLE details & history
Last TLE update: 2 days ago

TLE from 2 days ago
0 STARLINK-3456
1 51759U 22016AX  26171.39508052 -.00001177  00000-0 -55872-4 0  9996
2 51759  53.1580 207.9419 0001097  76.2391 283.8723 15.08835322239215
Epoch: 2026-06-20T09:28Z
TLE epoch observation values (Epoch: 2026-06-20T09:28:54.956Z)
Latitude
Longitude
157.1026°
Altitude
540.467 km
Speed
7.593 km/s
True Right ascension
13h 51m 46s
True Declination
0° 00' 00"
Sunlit
Object was in full shadow at epoch
Visualization orbit readout
Latitude
Unknown
Longitude
Unknown
Altitude
Unknown
Speed
Unknown
Apparent Right ascension
Unknown
Apparent Declination
Unknown
Sunlit
N/A
Visualization observer readout
Local Sidereal Time
21:31:56
Azimuth
Unknown
Elevation
Unknown
Doppler factor
Unknown
Orbital elements
Apogee altitude
540.771 km
Perigee altitude
539.253 km
Semi-major axis
6,918.149 km
Eccentricity
0.00011
Inclination
53.158°
RAAN
207.9419°
Arg. of periapsis
76.2391°
True anomaly
283.8601°
Mean anomaly
283.8723°
Eccentric anomaly
283.8662°
Mean motion
3.77188 °/min
Orbital period
95.44 mins
BSTAR
-0.000055872
Loading maneuver chart data...
Computing Atmospheric mass density...
Loading historical data...
Loading historical data...
Loading historical data...
Loading historical data...
Loading historical data...
Loading historical data...
Loading historical data...

Documentation

Showing up to 5 results
|